Regional Weather Roundup
Issued by NWS

Home | Current Version | Previous Version | Graphics & Text | Print | Product List | Glossary On
Versions: 1 2 3 4 5 6 7 8 9 10 11 12 13 14 15 16 17 18 19 20 21 22 23 24 25 26 27 28 29 30 31 32 33 34 35 36 37 38 39 40 41 42 43 44 45 46 47 48 49 50
000
ASUS43 KLOT 290802
RWRIL

ILLINOIS REGIONAL WEATHER ROUNDUP
NATIONAL WEATHER SERVICE CHICAGO/ROMEOVILLE IL
300 AM CDT SUN MAR 29 2015

NOTE: "FAIR" INDICATES FEW OR NO CLOUDS BELOW 12,000 FEET WITH NO
SIGNIFICANT WEATHER AND/OR OBSTRUCTIONS TO VISIBILITY.

* THESE STATIONS ARE NOT UNDER NWS QUALITY CONTROL. THEY ALSO MAY NOT
  REPORT WEATHER SUCH AS PRECIPITATION OR FOG.

ILZ001-002-007-009-015-016-024-290900-
NORTHWEST ILLINOIS

CITY           SKY/WX    TMP DP  RH WIND       PRES   REMARKS
MOLINE         PTCLDY    30  18  60 SE10      30.12F WCI  21
STERLING*      PTCLDY    28  19  69 S6        30.16F WCI  22
$$

ILZ003-004-008-010-011-017-018-290900-
NORTH CENTRAL ILLINOIS

CITY           SKY/WX    TMP DP  RH WIND       PRES   REMARKS
ROCKFORD       CLEAR     28  17  63 S13       30.17F WCI  17
$$

ILZ005-006-012>014-019>023-290900-
NORTHEAST ILLINOIS

CITY           SKY/WX    TMP DP  RH WIND       PRES   REMARKS
CHICAGO-OHARE  MOCLDY    25  15  66 S8        30.20F WCI  16
CHICAGO-MIDWAY PTCLDY    28  14  55 S8        30.22F WCI  20
AURORA         CLEAR     27  16  63 S9        30.20F WCI  18
WAUKEGAN       PTCLDY    27  14  58 S12       30.18F WCI  17
DUPAGE AIRPORT CLEAR     25  15  66 S10       30.19F WCI  15
WHEELING       PTCLDY    26  13  57 S9        30.22F WCI  17
NORTHERLY ISL    N/A     29  13  51 S9          N/A  WCI  21
$$

LMZ740>746-290900-
SOUTHERN LAKE MICHIGAN

STATION/POSITION SKY/WX   TEMP    WIND        PRES    VSBY  WAVE
                          AIR SEA DIR/SP/G                  HT/PER
                          (F)     (DEG/KT/KT) (MB)    (MI)  (FT/S)
HARRISON CRIB              31     180/ 19/ 22   N/A
BURNHAM HARBOR             29     170/ 11       N/A
BURNS HARBOR               27     170/  9/ 15 1025.4F
MICHIGAN CITY              26     140/ 11/ 14   N/A
$$

ILZ025>027-034>036-040-047-049-050-058-095>099-290900-
WEST-CENTRAL ILLINOIS

CITY           SKY/WX    TMP DP  RH WIND       PRES   REMARKS
QUINCY         CLEAR     34  20  56 S10       30.13F WCI  26
$$

ILZ028>032-037-038-041>044-048-051>054-059>061-290900-
CENTRAL ILLINOIS

CITY           SKY/WX    TMP DP  RH WIND       PRES   REMARKS
DECATUR        CLEAR     30  20  66 S10       30.24F WCI  21
PEORIA         PTCLDY    33  19  56 S15       30.19F WCI  23
SPRINGFIELD    CLEAR     34  20  56 S15       30.22F WCI  24
TAYLORVILLE    NOT AVBL
$$

ILZ033-039-045-046-055>057-062-063-290900-
EAST-CENTRAL ILLINOIS

CITY           SKY/WX    TMP DP  RH WIND       PRES   REMARKS
CHAMPAIGN      CLEAR     24  19  81 SE8       30.25F WCI  15
RANTOUL*       CLEAR     29  21  72 SE8       30.26F WCI  21
MATTOON        CLEAR     30  18  60 S8        30.26F WCI  22
$$

ILZ079-100>102-290900-
SOUTHWEST ILLINOIS

CITY           SKY/WX    TMP DP  RH WIND       PRES   REMARKS
BELLEVILLE     CLEAR     31  22  68 SE6       30.24F WCI  26
CAHOKIA*       CLEAR     33  21  61 SE8       30.24F WCI  26
$$

ILZ064>066-069>071-074>076-080>082-084>086-088>090-092>094-290900-
SOUTH-CENTRAL ILLINOIS

CITY           SKY/WX    TMP DP  RH WIND       PRES   REMARKS
CARBONDALE     CLEAR     30  17  58 S6        30.29F WCI  24
MT. VERNON     CLEAR     30  18  59 SE5       30.29F WCI  25
$$

ILZ067-068-072-073-078-083-087-091-290900-
SOUTHEAST ILLINOIS

CITY           SKY/WX    TMP DP  RH WIND       PRES   REMARKS
LAWRENCEVILLE  CLEAR     25  21  85 SE6       30.32F WCI  18
$$

ABBREVIATIONS USED IN REMARKS
   TC - TEMPERATURE IN CELSIUS
  WCI - WIND CHILL INDEX
   HX - HEAT INDEX
  VSB - VISIBILITY
$$




USA.gov is the U.S. government's official web portal to all federal, state and local government web resources and services.